This is the latest recevied weather packets stored in our database for station/object KB3KAV. If no packets are shown the sender has not sent any weather packets the latest 10 day(s).
| Time | Temp. | Humidity | Pressure | Rain* | Wind** | Luminosity | Snow |
|---|---|---|---|---|---|---|---|
| 1777966173 | 10° C | 87% | 1037.4 hPa | 0 mm | - | 0 W/m² | - |
| 1777965570 | 10° C | 85% | 1037.5 hPa | 0 mm | - | 0 W/m² | - |
| 1777964970 | 10° C | 84% | 1037.4 hPa | 0 mm | - | 0 W/m² | - |
| 1777964368 | 10° C | 84% | 1037.6 hPa | 0 mm | - | 0 W/m² | - |
| 1777963767 | 10° C | 83% | 1037.4 hPa | 0 mm | - | 0 W/m² | - |
| 1777963163 | 10.56° C | 82% | 1037.6 hPa | 0 mm | - | 0 W/m² | - |
| 1777962561 | 10.56° C | 81% | 1037.8 hPa | 0 mm | - | 0 W/m² | - |
| 1777961961 | 11.11° C | 81% | 1037.7 hPa | 0 mm | - | 0 W/m² | - |
| 1777961357 | 11.11° C | 80% | 1037.8 hPa | 0 mm | - | 0 W/m² | - |
| 1777960756 | 11.11° C | 80% | 1038 hPa | 0 mm | - | 0 W/m² | - |
| 1777960154 | 11.11° C | 79% | 1037.9 hPa | 0 mm | - | 0 W/m² | - |
| 1777959550 | 11.11° C | 78% | 1037.8 hPa | 0 mm | - | 0 W/m² | - |
| 1777958949 | 11.11° C | 78% | 1037.8 hPa | 0 mm | - | 0 W/m² | - |
| 1777958349 | 11.11° C | 77% | 1038.1 hPa | 0 mm | - | 0 W/m² | - |
| 1777957744 | 10.56° C | 78% | 1037.8 hPa | 0 mm | - | 0 W/m² | - |
| 1777957139 | 11.11° C | 76% | 1038.1 hPa | 0 mm | - | 0 W/m² | - |
| 1777956538 | 11.11° C | 76% | 1037.5 hPa | 0 mm | - | 0 W/m² | - |
| 1777955938 | 11.67° C | 75% | 1037.5 hPa | 0 mm | - | 0 W/m² | - |
| 1777955336 | 11.67° C | 75% | 1037.5 hPa | 0 mm | - | 0 W/m² | - |
| 1777954735 | 11.67° C | 74% | 1037.5 hPa | 0 mm | - | 0 W/m² | - |
| 1777954135 | 12.22° C | 72% | 1037.4 hPa | 0 mm | - | 0 W/m² | - |
| 1777953535 | 12.22° C | 71% | 1037.3 hPa | 0 mm | - | 0 W/m² | - |
| 1777952935 | 12.78° C | 70% | 1037.2 hPa | 0 mm | - | 0 W/m² | - |
| 1777952334 | 13.33° C | 68% | 1037.3 hPa | 0 mm | - | 0 W/m² | - |
| 1777951729 | 13.89° C | 64% | 1037.2 hPa | 0 mm | - | 0 W/m² | - |
* Rain latest hour (hover to see other rain measurements)
** Current wind speed in m/s (hover to see current wind gust speed)